Theta_e
316 317 317 318 318 318 318 319 319 318 318 319 319 319 319 319 318 302 293 299 309 318 318 305 300 298 297 299 302 300 291 288 290 289 290 294 292 295 296 294 296 299 303 307 306
317 317 317 318 318 319 319 320 320 319 319 319 319 319 319 318 308 297 307 313 315 317 301 298 296 296 292 295 297 294 289 291 292 291 290 293 291 291 292 291 292 294 298 302 303
317 317 317 318 318 319 320 320 320 320 319 319 318 318 318 315 301 296 312 315 319 314 303 300 298 295 291 294 294 293 289 291 293 293 293 292 291 291 289 290 293 292 294 301 300
318 318 318 318 319 320 320 320 320 320 320 318 317 317 317 307 290 297 314 315 317 307 300 298 296 291 290 289 293 289 294 293 295 295 293 291 292 291 291 292 293 294 292 300 300
318 318 318 319 319 320 321 321 321 320 319 316 316 317 306 295 295 300 311 308 302 300 296 296 293 292 289 290 291 289 290 292 292 292 292 292 291 290 290 293 294 294 294 292 298
319 319 319 319 319 320 321 320 320 321 319 315 315 315 300 289 299 299 300 300 300 299 296 297 295 295 291 290 289 290 290 290 290 289 290 289 287 287 290 290 291 292 292 291 292
319 318 318 319 320 320 320 320 320 320 318 313 314 308 298 292 297 297 299 297 298 298 296 297 297 293 291 288 292 290 286 287 286 288 287 286 286 286 290 290 290 290 290 290 291
316 316 318 319 319 319 320 320 320 319 315 312 312 301 290 298 296 297 297 297 299 299 298 298 298 294 291 291 289 285 284 281 285 286 286 284 284 288 288 288 289 289 289 289 289
316 316 317 318 319 318 319 320 319 314 311 312 299 293 290 302 295 296 295 294 296 297 297 299 295 290 288 283 281 283 279 280 284 286 285 283 283 287 287 288 287 288 288 289 288
314 315 316 318 318 318 319 318 314 305 306 303 298 290 291 290 295 295 295 296 294 293 294 292 289 284 283 282 278 280 279 281 281 283 284 282 283 288 288 288 288 287 288 287 288
311 312 313 316 317 317 312 298 298 296 295 293 292 291 292 294 296 294 295 293 293 289 284 287 283 280 282 283 283 282 281 280 281 284 282 281 282 286 287 286 286 286 286 286 287
309 310 311 313 315 316 300 293 291 290 290 294 293 292 294 293 289 292 295 288 287 283 285 282 280 284 285 285 283 281 280 279 282 284 281 280 281 287 286 286 284 285 285 285 286
307 308 310 312 315 304 295 294 299 295 288 292 291 291 292 292 289 289 291 288 285 283 283 281 283 286 284 281 281 280 280 279 280 281 282 279 281 284 285 286 285 285 285 286 286
306 306 308 310 307 302 296 300 299 298 281 288 287 290 291 291 286 292 291 288 285 282 282 282 283 283 281 281 282 279 281 281 281 277 273 279 275 280 284 284 285 284 283 284 286
304 305 306 309 306 300 299 298 295 295 276 287 285 292 290 286 287 288 290 287 283 282 282 281 280 280 280 281 283 280 282 281 281 275 271 274 271 279 282 282 283 283 284 284 285
304 304 305 306 304 301 301 298 297 284 277 283 285 284 284 285 286 287 287 288 286 282 281 280 283 282 281 283 283 284 281 281 279 274 267 271 273 277 279 281 282 283 284 285 286
303 304 302 303 300 302 300 298 285 279 286 281 281 283 282 282 283 284 283 281 278 275 276 280 280 281 284 281 282 281 278 269 270 268 272 275 271 278 282 281 282 284 284 285 287
304 303 302 306 304 301 299 290 278 274 278 286 283 283 282 283 282 283 280 279 282 281 278 277 277 281 283 281 280 279 278 273 267 270 272 275 271 279 283 284 284 287 287 287 287
302 294 298 304 304 302 294 283 275 279 285 283 284 282 282 282 283 281 280 280 283 283 281 278 279 282 284 283 283 279 277 281 270 262 268 273 277 281 282 282 283 285 287 287 287
291 290 293 305 303 300 288 283 280 285 288 286 282 285 277 280 280 280 281 283 283 284 285 283 279 281 282 284 284 280 282 277 277 270 265 271 272 277 279 281 283 285 286 286 286
289 285 293 301 302 294 283 281 283 288 291 287 282 282 282 280 279 276 279 283 284 282 284 281 281 278 280 279 279 278 277 279 281 279 272 269 275 282 281 282 284 285 286 285 285
288 275 292 300 287 285 284 278 289 287 290 289 285 284 283 283 279 278 277 282 285 284 280 282 280 271 277 278 280 280 279 280 277 274 273 273 274 284 283 285 286 285 286 285 285
285 280 291 294 281 281 281 283 285 285 286 287 285 285 285 284 276 279 276 284 285 282 281 282 274 266 273 277 278 277 280 280 278 276 272 271 274 283 283 283 286 284 283 283 283
287 276 276 288 287 283 275 278 277 285 285 288 286 286 282 281 282 274 278 283 284 281 289 285 277 273 272 274 277 275 277 278 277 269 273 276 276 281 283 283 284 284 283 281 282
286 280 277 267 280 280 281 277 273 276 284 285 283 284 283 278 280 277 278 282 282 284 283 280 270 272 273 276 277 278 277 277 276 277 273 277 278 283 284 284 284 284 283 281 281
283 282 281 274 278 278 279 278 279 280 281 279 281 283 283 281 282 275 281 280 282 280 280 280 268 272 269 270 276 277 280 278 277 278 277 278 278 286 286 283 283 283 282 280 280
289 289 285 280 278 275 277 279 279 281 282 284 283 281 280 283 286 286 285 285 284 280 277 277 273 272 265 268 268 272 277 279 280 278 280 276 282 283 282 282 283 280 282 281 280
Wind_Speed
9 10 11 11 11 11 11 11 11 12 13 13 13 13 14 15 12 1 1 3 5 11 9 6 2 0 1 1 1 3 4 3 5 6 4 3 1 1 2 2 3 2 6 4 6
8 9 11 12 12 12 13 13 14 14 14 13 14 14 15 15 3 1 2 5 7 7 4 6 2 4 2 1 1 4 3 8 4 3 2 1 0 2 2 2 5 4 1 3 5
10 10 10 11 12 13 13 13 13 14 15 14 12 12 13 9 2 2 1 6 5 0 1 1 2 1 1 2 2 3 5 3 3 2 1 2 3 1 2 5 9 7 4 4 4
10 11 12 12 12 13 14 15 15 16 15 13 10 9 11 1 2 1 6 6 5 1 1 0 1 2 1 3 2 1 6 3 3 1 2 3 3 6 7 8 1 7 0 5 6
10 12 12 12 13 14 15 16 17 16 16 13 8 6 2 1 4 4 8 7 2 1 2 1 2 2 3 2 1 3 3 2 2 4 5 3 6 6 11 11 9 7 6 5 7
9 10 12 13 14 15 15 17 17 15 14 10 5 2 2 1 1 5 6 3 4 3 2 3 2 2 1 2 2 2 4 7 5 2 4 3 4 2 5 1 3 6 11 9 8
9 11 13 13 14 14 15 17 18 15 10 5 2 0 1 6 2 5 6 1 3 2 2 2 1 2 2 1 3 2 5 7 1 1 3 1 8 10 8 6 8 6 5 6 10
12 14 13 11 12 14 14 16 16 15 5 3 0 1 6 1 1 2 4 2 4 1 2 1 1 2 1 1 4 2 3 4 1 2 1 2 10 5 4 1 7 8 7 6 5
12 13 14 14 13 14 14 17 15 2 3 1 0 1 6 2 1 0 1 1 3 1 2 1 3 2 4 4 5 5 4 5 5 3 1 2 9 6 3 6 9 9 8 7 6
16 16 16 15 14 15 18 18 5 2 1 1 1 2 2 3 1 1 1 2 4 1 3 3 5 3 3 4 6 6 4 4 5 1 1 2 16 15 8 8 12 9 9 9 8
17 17 18 18 18 20 11 4 4 2 1 7 3 2 1 0 1 1 1 2 2 3 4 1 3 8 10 7 2 2 3 4 2 2 2 4 10 21 7 6 9 9 8 7 7
19 20 19 19 20 14 3 4 2 3 7 3 4 2 1 1 1 2 2 4 3 5 4 3 9 4 3 4 5 4 2 5 4 2 1 4 13 20 7 3 2 6 7 2 5
21 21 22 22 19 5 2 2 2 1 2 6 3 3 3 5 4 4 5 5 4 5 7 7 1 4 3 3 4 3 5 3 3 4 3 7 9 4 3 4 5 7 4 5 6
19 21 22 26 3 3 2 4 3 2 3 6 3 2 2 2 3 2 1 2 2 7 6 6 2 4 3 3 5 2 2 3 3 4 4 4 6 4 5 7 6 6 7 6 7
19 20 20 17 4 2 2 3 3 3 4 1 2 0 2 4 2 0 1 3 4 6 7 5 5 4 3 4 4 4 3 4 3 4 4 5 5 9 4 5 5 4 5 5 5
20 20 19 3 3 1 2 3 2 4 11 1 3 4 3 2 2 1 1 2 1 2 0 2 0 2 3 3 2 6 5 6 4 3 3 4 6 6 3 5 6 2 3 5 6
20 21 15 4 2 2 2 1 2 6 4 4 3 3 3 5 3 5 4 4 6 5 5 1 3 2 3 5 3 3 5 3 5 4 6 3 4 8 6 3 3 6 5 4 6
22 23 5 3 2 2 2 2 8 4 6 2 1 3 4 5 2 4 3 3 7 3 3 6 4 8 4 4 5 6 6 6 7 3 4 3 6 3 4 5 1 4 5 5 4
18 4 4 3 1 2 1 6 9 7 3 4 1 2 4 3 3 4 6 5 6 11 8 5 1 2 2 1 2 4 5 4 9 1 4 3 5 4 2 2 4 7 7 4 3
4 4 4 5 3 1 1 13 8 6 3 2 6 5 5 3 4 4 6 4 4 5 1 4 3 0 1 1 0 2 3 3 2 2 3 5 5 5 7 7 7 6 6 3 3
3 4 3 5 1 2 9 7 5 5 3 5 3 3 6 4 6 4 4 3 4 4 2 4 3 1 2 7 8 2 2 1 2 3 6 2 7 6 11 9 9 7 4 2 3
3 3 3 3 3 3 11 6 2 4 2 4 3 5 6 6 6 4 7 6 4 6 8 5 5 4 5 1 1 2 4 6 5 5 0 3 8 3 10 8 9 7 4 2 3
2 4 3 0 5 8 5 3 1 2 4 4 5 6 4 6 1 7 4 2 3 5 7 6 2 3 8 4 1 5 5 3 4 3 6 7 7 2 5 6 7 6 3 4 3
2 4 5 3 2 3 3 7 5 3 5 5 4 3 3 4 3 4 3 1 2 3 1 3 2 7 9 7 5 5 6 6 6 4 5 10 3 4 7 8 6 4 7 5 5
3 4 4 4 6 7 2 1 2 4 5 2 5 9 7 5 3 6 3 1 0 2 2 5 5 4 3 2 2 3 5 9 10 6 8 6 13 12 8 9 8 8 2 4 7
4 3 2 3 2 4 8 6 16 6 3 5 8 2 7 14 7 4 5 4 6 2 5 1 3 3 4 3 1 5 9 8 7 7 11 9 19 11 7 6 7 9 5 7 7
3 2 4 3 2 4 11 11 11 7 10 16 11 4 7 11 6 7 7 4 5 8 8 7 7 4 7 2 4 9 18 13 11 7 10 13 24 4 7 9 8 7 8 8 8
Wind_Direction
345 344 343 345 343 344 345 347 342 340 335 332 335 337 336 335 323 55 61 255 302 318 325 270 244 107 83 111 110 124 70 209 234 170 240 352 5 317 337 290 301 232 158 252 178
335 337 336 339 339 341 342 342 340 337 333 331 334 336 333 339 327 344 182 306 313 332 15 29 35 353 43 95 19 105 139 219 216 185 225 317 190 306 338 245 264 285 265 62 131
329 328 330 333 334 336 336 336 335 335 331 325 324 326 329 337 321 222 280 312 303 42 162 290 290 297 103 107 197 164 203 219 267 190 158 268 268 277 265 253 230 218 221 173 160
321 324 327 329 331 332 330 332 332 329 328 319 310 316 322 318 237 320 329 335 327 182 236 32 73 102 117 205 177 211 244 227 263 223 184 227 302 288 206 232 200 241 153 170 178
316 320 322 323 326 327 328 330 329 328 328 324 310 318 18 16 265 354 345 345 17 136 50 99 133 129 196 224 284 216 293 308 298 315 270 307 245 244 262 250 262 260 270 229 221
303 310 312 315 319 321 324 326 324 324 327 327 311 330 87 266 136 3 353 8 24 25 36 38 133 137 159 255 186 326 306 281 287 290 267 264 266 49 261 253 277 230 244 232 221
335 325 315 308 311 315 317 320 320 318 315 313 287 34 110 233 14 347 19 9 5 17 79 32 73 169 136 262 325 335 326 323 251 278 221 32 289 232 250 314 284 288 283 236 224
343 333 318 298 295 308 310 314 313 308 281 283 115 142 237 166 203 33 340 95 8 19 101 125 76 117 95 339 14 360 62 350 313 76 341 83 272 273 358 250 275 273 276 271 243
357 347 338 334 323 316 317 310 306 299 186 166 33 173 272 333 135 182 79 77 312 355 35 57 46 75 46 94 1 3 242 210 304 56 332 162 274 269 60 351 293 284 273 256 261
360 355 347 341 336 332 324 310 265 68 73 96 351 7 287 207 141 352 23 62 80 37 41 66 54 72 48 108 221 206 225 251 249 14 32 233 271 276 292 274 274 275 257 252 248
357 355 346 340 333 329 341 6 10 338 355 198 184 246 152 249 57 104 53 71 68 71 187 31 103 213 210 201 135 137 194 248 275 81 293 247 278 282 307 267 293 299 289 258 242
354 348 344 337 331 329 35 59 56 215 310 246 228 189 137 177 225 203 121 146 159 196 126 56 229 205 207 171 199 215 198 255 277 88 32 10 286 279 290 266 329 329 3 49 101
352 345 345 336 333 41 41 54 325 231 270 293 208 191 190 150 226 211 159 156 171 178 192 177 180 131 161 166 163 203 186 224 221 350 54 338 288 349 313 354 40 22 21 57 101
349 345 341 339 28 334 21 347 7 19 28 250 227 262 112 128 261 147 110 161 198 204 171 234 272 170 157 209 144 231 157 111 89 65 230 7 277 324 349 17 37 39 55 72 81
342 342 340 330 297 5 308 357 0 60 295 141 180 176 101 165 135 142 11 54 203 188 122 236 166 168 168 208 169 204 100 101 91 94 64 320 83 269 352 358 4 69 89 90 104
335 338 334 333 296 323 338 10 47 47 248 209 131 169 136 179 203 110 75 46 328 125 13 216 278 155 179 89 88 140 80 55 65 95 20 246 131 287 353 304 305 78 103 127 133
333 328 316 281 257 334 8 18 18 215 325 274 212 162 192 187 195 173 170 189 167 110 212 178 205 172 154 102 40 98 90 340 356 15 219 151 66 239 299 307 240 143 148 151 128
332 324 295 254 111 344 106 65 216 239 243 342 200 139 204 156 215 180 176 247 225 221 136 164 276 172 178 195 172 176 161 161 203 196 246 6 240 229 245 300 59 115 119 100 120
332 315 293 341 111 119 150 212 218 205 202 175 96 206 229 183 166 156 210 223 219 185 190 153 204 29 47 48 132 179 193 143 105 63 50 236 276 327 79 106 116 97 83 94 153
337 340 285 341 350 121 169 223 216 203 166 134 205 184 210 212 163 171 192 203 208 194 234 188 88 131 118 72 346 196 164 104 4 140 262 291 279 215 189 181 142 115 70 16 348
1 340 279 333 324 198 223 231 250 243 214 198 238 216 222 189 189 213 223 278 183 155 145 137 102 199 114 196 181 145 228 242 113 138 171 219 258 218 173 181 151 153 177 176 303
334 331 295 337 195 246 230 200 315 287 190 278 169 224 211 198 200 230 222 221 178 159 166 178 129 169 195 333 351 257 214 177 143 220 224 139 273 146 165 170 152 178 198 255 294
276 263 312 92 233 229 293 281 267 275 241 212 241 209 198 212 252 206 210 319 121 166 166 185 258 53 346 0 36 217 200 153 104 80 194 143 254 19 160 178 188 181 165 230 209
258 295 310 224 297 219 208 241 244 231 261 273 272 174 158 233 226 263 259 271 158 174 134 109 143 166 186 193 135 192 195 178 147 143 168 223 250 201 203 225 251 253 215 173 209
223 240 199 272 245 241 285 151 229 232 226 242 260 212 183 222 220 231 257 292 347 233 99 132 198 159 262 286 178 220 196 184 200 188 179 202 219 237 227 229 241 235 226 195 222
276 250 260 244 249 212 226 237 242 232 217 259 242 326 223 233 214 206 189 189 209 111 161 146 219 110 320 359 0 273 250 210 205 220 247 266 266 250 258 203 225 239 239 219 233
180 245 253 254 214 204 230 235 249 220 249 242 250 245 248 255 249 249 219 223 218 172 182 161 136 134 254 5 79 286 235 210 218 195 201 231 248 265 231 228 234 235 209 219 227